الصفحة الرئيسية
METAR-TAF:

METAR-TAF

مطار :

سنندج, إيران

دائرة عرض: 35-20N, خط طول: 047-00E, ارتفاع: 1373 متر

مراقبة الطقس الحالي

تاريخ ووقت الإصدار 59 دقيقة قبل الساعة 22:00UTC
ريح 6 عقدة من الشمال
درجة الحرارة 23°درجة مئوية
الرطوبة 27%
ضغط 1012 hPa
الرؤية 10 كم أو أكثر
الغيوم لا تقل 1500 م ولا وجود لمزنة ركامية السحاب الأسود

METAR: OICS 242200Z 01006KT CAVOK 23/03 Q1011 A2987

زمن: 03:29 (22:59 UTC)


TAF: مفقودة

أرصاد الطقس والتوقعات من أكثر من 4000 مطار (تقارير الطقس للمطار METAR والتنبؤ بالطقس بالمطارTAF).

المحطات المتاحة هي النقط الصفراء والحمراء على الخريطة.

حرك المؤشر فوق النقطة لمعرفة اسم المحطة.

ثم انقر لمعرفة أرصاد وتوقعات الطقس.

لتغيير الخارطة: اضغط على الأزرار الخضراء مع رمز الصليب الأسود للتكبير. على الزر الأخضر مع شرطة للتصغير، أو على الأسهم الخضراء للخرائط المجاورة.


METAR-TAF: